Location: Crescent
(42.8242°N, 73.7329°W)
Time: 18:10:02
(UTC+00:00)

Transit 4A - Pass Details

Date: 17 February 2026
Orbit: 864 x 977 km, 66.8° (Epoch: 10 March)

Event Time Altitude Azimuth Distance (km) Brightness Sun altitude
Rises 08:55:14 0° 213° (SSW) 3,442 - -32.4°
Reaches altitude 10° 08:57:41 10° 214° (SW) 2,517 - -32.0°
Maximum altitude 09:03:30 79° 301° (WNW) 909 - -30.9°
Exits shadow 09:04:46 57° 14° (NNE) 1,048 8.2 -30.7°
Drops below altitude 10° 09:09:32 10° 29° (NNE) 2,598 10.7 -29.8°
Sets 09:12:05 0° 31° (NNE) 3,561 11.5 -29.4°
